Flag for Japan Weather past 2 weeks in Fukuoka, Japan

Now
72 °F

Passing clouds.


Feels Like: 71 °F
Forecast: 74 / 81 °F
Wind: 3 mph from Northeast

Location: Fukuoka Airport

Current Time: Aug 31, 2014 at 3:13:36 AM

Latest Report: Aug 31, 2014 at 2:30 AM


Visibility: N/A

Pressure: 29.83 "Hg

Humidity: 83%

Dew point: 66 °F

Location of FukuokaLocation

Historic Weather in Fukuoka — Graph

°F

Fukuoka temperature yesterday

Maximum temperature yesterday: 84 °F (at 2:00 PM)
Minimum temperature yesterday: 68 °F (at 12:00 AM)
Average temperature yesterday: 76 °F

Past Weeks' High & Low Weather Summary

 TemperatureHumidityPressure
High88 °F (Aug 21, 12:30 PM)100% (Aug 16, 2:00 AM)29.98 "Hg (Aug 16, 2:00 AM)
Low68 °F (Aug 30, 12:00 AM)48% (Aug 30, 2:00 PM)29.71 "Hg (Aug 16, 2:00 AM)
Average78 °F82%29.86 "Hg
* Reported Aug 16 2:00 AM — Aug 31 2:00 AM, Fukuoka, Weather by CustomWeather, © 2014

Note: Actual official high and low records may vary slightly from our data, if they occured in-between our weather recording intervals... More about our weather records

Advertising

Fukuoka weather history for previous 24 hours

 ConditionsComfort  
Time TempWeatherWind HumidityBarometerVisibility
2:00 AM
Aug 31
72 °FPassing clouds.5 mph83%29.83 "HgN/A
1:30 AM73 °FPassing clouds.2 mph78%29.86 "HgN/A
1:00 AM73 °FPassing clouds.1 mph83%29.86 "HgN/A
12:30 AM72 °FPassing clouds.2 mph88%29.86 "HgN/A
12:00 AM73 °FPassing clouds.3 mph83%29.86 "HgN/A
11:30 PM
Aug 30
73 °FPassing clouds.3 mph83%29.86 "HgN/A
11:00 PM73 °FPassing clouds.3 mph83%29.86 "HgN/A
10:30 PM73 °FPassing clouds.3 mph83%29.86 "HgN/A
10:00 PM73 °FPassing clouds.5 mph83%29.86 "HgN/A
9:30 PM75 °FPassing clouds.6 mph78%29.86 "HgN/A
9:00 PM75 °FPassing clouds.6 mph78%29.86 "HgN/A
8:30 PM75 °FPassing clouds.7 mph78%29.86 "HgN/A
8:00 PM75 °FPassing clouds.9 mph78%29.86 "HgN/A
7:30 PM75 °FPassing clouds.10 mph78%29.86 "HgN/A
7:00 PM75 °FPassing clouds.12 mph74%29.83 "HgN/A
6:30 PM77 °FPartly sunny.13 mph69%29.83 "HgN/A
6:00 PM77 °FPartly sunny.14 mph69%29.83 "HgN/A
5:30 PM79 °FPartly sunny.13 mph65%29.83 "HgN/A
5:00 PM81 °FPartly sunny.16 mph62%29.83 "HgN/A
4:30 PM81 °FBroken clouds.16 mph62%29.83 "HgN/A
4:00 PM82 °FPartly sunny.16 mph58%29.83 "HgN/A
3:30 PM84 °FBroken clouds.15 mph58%29.83 "HgN/A
3:00 PM82 °FPartly sunny.10 mph55%29.83 "HgN/A
2:30 PM84 °FPartly sunny.7 mph51%29.83 "HgN/A
2:00 PM84 °FPartly sunny.9 mph48%29.86 "HgN/A
1:30 PM82 °FBroken clouds.9 mph55%29.86 "HgN/A
1:00 PM82 °FPartly sunny.8 mph55%29.86 "HgN/A
12:30 PM82 °FPartly sunny.7 mph55%29.86 "HgN/A
12:00 PM82 °FPartly sunny.7 mph58%29.89 "HgN/A
11:30 AM81 °FScattered clouds.7 mph58%29.89 "HgN/A
11:00 AM81 °FScattered clouds.7 mph54%29.89 "HgN/A
10:30 AM81 °FPartly sunny.6 mph58%29.92 "HgN/A
10:00 AM79 °FPassing clouds.7 mph61%29.92 "HgN/A
9:30 AM79 °FScattered clouds.6 mph58%29.92 "HgN/A
9:00 AM77 °FScattered clouds.8 mph65%29.92 "HgN/A
8:30 AM75 °FPartly sunny.5 mph74%29.92 "HgN/A
8:00 AM75 °FPartly sunny.7 mph74%29.92 "HgN/A
7:30 AM72 °FPartly sunny.3 mph88%29.92 "HgN/A
7:00 AM72 °FPartly sunny.2 mph83%29.92 "HgN/A
6:30 AM70 °FPartly sunny.1 mph94%29.92 "HgN/A
6:00 AM70 °FPartly sunny.2 mph88%29.89 "HgN/A
4:00 AM70 °FPassing clouds.3 mph94%29.92 "HgN/A
3:30 AM70 °FPassing clouds.2 mph94%29.92 "HgN/A
3:00 AM70 °FPassing clouds.2 mph94%29.92 "HgN/A
Weather by CustomWeather, © 2014

See weather overviewHow to use our weather pages